Wind_Speed
25 25 24 23 23 22 22 21 21 20 20 19 19 19 18 18 18 18 19 20 20 21 21 21 23 24 26 28 29 31 32 33 33 34 34 35 35 35 36 37 38 39 40 41
26 25 25 24 23 23 23 22 22 21 20 20 20 20 20 20 20 21 21 21 22 22 22 23 23 24 26 28 30 32 33 34 34 35 36 36 36 36 37 37 38 39 39 41
27 26 26 25 24 24 24 23 23 22 22 22 21 21 22 22 22 23 23 23 22 23 23 24 25 27 28 29 31 32 33 34 34 35 36 36 36 37 38 38 39 40 41 41
28 28 27 26 25 26 26 25 25 24 23 23 23 23 24 24 25 24 24 24 24 25 25 26 27 28 29 30 30 31 32 33 35 35 35 35 36 37 37 38 39 40 41 41
30 29 29 27 27 27 27 26 26 26 25 25 25 25 26 26 26 26 27 26 27 27 27 28 28 30 30 31 32 32 33 34 35 35 36 36 37 37 38 39 40 40 41 42
31 31 30 28 28 28 29 28 27 27 27 27 27 28 28 28 29 29 29 29 29 30 30 30 31 31 32 32 33 33 34 35 35 36 37 38 38 39 39 40 40 40 41 42
33 33 32 31 31 30 30 30 29 29 29 30 30 30 30 30 31 31 31 31 32 32 32 32 32 32 33 34 34 35 35 36 37 37 38 39 39 39 39 40 40 40 41 41
35 35 33 33 33 32 32 32 31 31 31 31 32 32 32 32 32 32 33 33 34 34 34 34 34 35 35 35 36 36 36 37 38 39 39 40 40 40 40 40 40 41 41 41
37 36 36 36 35 35 34 34 33 34 34 34 34 34 34 34 34 35 35 35 35 36 36 36 36 36 37 37 37 36 36 36 37 38 39 40 41 40 40 41 41 41 41 42
39 38 38 38 38 37 37 37 36 36 36 36 36 36 36 36 37 37 37 36 37 37 37 37 37 38 38 38 38 38 38 38 38 38 39 40 41 41 41 41 42 42 42 42
41 41 41 40 40 40 39 39 39 38 38 38 38 38 38 38 38 38 38 38 38 38 38 38 39 39 39 39 39 39 39 39 39 40 40 41 41 41 41 41 42 43 43 43
41 41 42 41 41 41 41 41 40 40 40 40 40 40 40 40 40 40 40 40 40 40 39 39 39 39 39 39 40 40 40 40 40 40 41 41 41 40 40 41 42 43 43 43
42 42 42 42 41 42 42 41 41 41 41 41 41 41 41 41 41 41 41 41 41 41 40 40 40 40 40 40 40 40 40 40 40 40 40 40 40 41 40 40 41 41 42 42
42 43 42 42 42 42 42 41 41 41 42 42 42 42 42 42 42 42 42 42 42 42 42 41 41 41 41 41 41 41 40 40 40 40 40 40 40 40 41 41 40 40 40 41
43 43 43 43 43 42 42 42 42 42 42 42 43 43 44 44 43 43 43 43 43 42 42 42 42 42 41 41 41 41 41 41 41 40 41 41 41 41 41 40 40 40 40 40
43 42 42 42 42 42 42 42 42 43 43 44 44 44 44 44 44 44 44 44 43 43 43 42 42 42 42 41 41 41 41 41 41 41 41 41 41 40 40 40 40 40 40 40
41 41 40 41 41 42 43 43 44 44 45 45 45 45 45 45 45 45 44 44 43 43 43 43 42 42 42 42 41 41 41 41 41 41 41 40 40 39 39 39 39 39 39 39
41 41 41 41 41 41 42 43 44 44 45 45 45 45 45 45 44 44 44 43 43 43 43 43 42 42 42 41 41 41 41 41 41 41 40 40 39 39 39 38 38 38 37 37
41 42 43 43 43 43 43 42 43 43 43 43 44 44 44 44 44 43 43 43 42 42 41 41 41 40 40 40 41 41 41 41 40 40 39 39 38 37 37 37 36 36 36 36
41 41 42 42 42 42 42 42 41 41 41 42 42 41 42 42 41 41 41 40 40 40 39 39 39 39 39 39 40 40 40 39 39 38 38 37 37 36 36 35 35 35 35 35
39 39 39 39 40 40 40 40 39 39 40 39 39 39 38 38 38 38 38 38 38 38 38 38 38 38 38 38 38 37 37 37 36 36 36 36 35 35 34 34 34 34 34 34
36 36 37 37 36 36 36 37 37 37 37 37 37 37 37 36 36 36 37 37 37 37 37 36 36 36 36 36 35 35 35 34 34 34 33 33 33 33 32 32 32 32 33 33
34 34 34 34 34 34 34 35 35 35 35 35 35 35 35 35 35 35 35 35 35 35 35 35 35 35 35 34 34 34 33 32 32 32 31 31 31 31 31 31 31 31 32 33
32 32 32 33 34 34 34 34 34 34 34 34 34 34 34 35 34 34 34 34 34 34 34 34 34 34 33 33 33 32 31 31 30 30 30 30 31 30 30 30 30 31 31 31
30 31 31 32 32 32 33 32 32 33 33 33 33 33 34 34 33 33 33 33 33 33 33 33 33 33 32 32 31 31 30 30 29 30 30 30 29 29 29 29 29 30 29 29
30 30 30 30 30 30 30 30 31 31 32 32 32 32 32 32 32 31 31 31 32 32 32 33 32 31 31 31 31 30 30 30 29 29 29 28 28 28 28 28 28 27 27 26
29 28 28 28 29 29 29 29 29 30 30 30 30 31 31 31 31 31 31 31 30 30 30 30 30 30 30 30 30 30 29 29 28 27 27 26 26 26 26 25 25 24 24 23
Wind_Direction
284 286 288 288 289 292 297 300 302 305 305 305 305 306 307 307 304 301 297 292 288 284 280 277 274 274 273 273 272 271 271 272 272 271 272 271 269 270 269 270 269 270 272 273
281 282 283 284 285 288 291 295 298 299 300 301 302 302 302 303 302 301 298 293 290 287 283 280 277 275 275 275 274 272 272 272 272 271 273 271 271 271 270 271 271 271 274 275
279 280 280 280 284 285 287 290 292 295 297 296 297 298 299 300 300 299 298 295 291 289 287 284 280 279 278 278 277 275 274 273 272 272 272 273 273 272 271 272 273 274 276 278
277 277 278 282 282 283 285 286 288 290 291 292 294 295 297 298 298 298 297 295 293 292 290 288 285 282 279 279 279 278 277 276 275 274 273 274 275 274 273 274 276 277 278 279
275 276 278 279 282 283 284 285 286 286 286 288 291 293 294 295 295 295 295 294 292 292 291 288 286 285 284 282 280 279 278 277 276 275 274 275 276 276 276 277 278 278 278 279
273 276 278 280 281 283 284 284 284 284 285 287 289 290 292 293 293 293 293 292 292 292 291 289 287 286 285 284 282 281 280 279 278 277 275 276 277 277 278 278 279 279 279 279
272 274 277 279 281 282 283 284 284 284 285 286 287 289 290 291 291 292 292 292 292 292 292 291 290 289 288 287 284 282 282 280 279 278 278 278 278 279 279 278 279 279 279 279
270 272 275 278 279 279 280 281 282 282 284 286 287 288 289 290 290 290 291 291 292 292 292 291 290 289 289 288 286 285 283 281 280 279 279 279 279 279 279 278 279 280 281 281
269 272 274 276 277 277 278 278 279 281 282 284 286 287 287 288 288 288 289 290 290 291 291 290 289 289 289 288 288 287 286 283 281 280 280 280 280 280 280 280 281 281 282 282
267 270 272 273 274 275 276 278 279 280 282 283 285 286 286 287 287 287 288 289 290 290 291 290 289 288 289 288 287 287 287 285 283 282 281 281 281 281 281 280 282 282 282 282
267 269 271 271 272 273 275 277 279 280 281 282 284 284 285 285 286 287 287 287 289 289 290 290 289 288 288 288 287 286 286 285 283 283 282 283 283 282 282 281 282 282 282 282
266 268 270 271 272 273 274 276 278 279 280 282 282 283 284 284 285 286 287 287 288 288 289 289 288 288 288 287 287 287 285 284 283 283 283 283 284 284 282 282 282 283 282 282
265 267 269 270 272 273 275 276 278 279 280 281 282 283 283 284 284 285 286 287 287 287 288 288 288 288 288 287 287 286 286 285 284 284 284 284 284 284 283 283 283 284 283 282
264 266 267 269 271 273 275 276 278 279 280 282 282 283 284 284 284 284 285 286 286 287 287 288 288 288 287 286 286 285 285 285 285 284 284 284 284 285 284 283 283 283 283 283
265 266 267 269 271 272 274 276 278 279 280 281 283 284 284 284 284 284 285 286 286 287 287 287 288 288 287 286 285 285 285 285 285 284 285 285 284 284 284 284 283 283 284 283
265 266 267 269 271 272 274 276 278 279 280 281 283 284 285 284 284 284 285 286 287 287 287 287 287 287 287 287 286 285 285 285 285 284 284 284 285 284 283 284 284 284 284 283
266 267 269 270 271 273 275 277 278 279 280 281 283 284 285 285 284 285 285 286 286 286 286 286 286 286 286 287 287 286 286 285 285 284 284 283 283 284 284 284 284 284 284 284
269 270 271 272 273 275 277 278 278 279 280 281 283 284 284 284 284 284 285 286 286 286 286 286 286 286 286 286 287 288 287 286 285 284 283 282 282 283 283 284 284 284 284 284
271 272 272 273 274 276 277 277 278 279 280 282 283 284 285 285 285 285 285 285 285 285 285 285 285 285 286 286 287 288 287 286 285 284 283 282 282 282 282 283 284 284 284 284
272 272 273 273 274 275 275 276 277 278 280 282 283 283 284 285 285 285 285 285 285 285 285 285 285 285 285 286 287 287 287 287 286 284 283 282 281 281 281 282 283 284 285 285
272 272 272 273 274 275 276 277 278 279 281 282 283 284 284 285 285 285 285 284 284 284 285 285 285 286 286 286 287 288 288 287 286 285 283 282 281 281 281 281 283 284 285 285
273 273 273 273 274 276 277 278 279 280 281 282 283 284 285 285 286 286 286 286 285 285 285 285 285 286 287 287 288 288 288 287 286 285 283 282 281 281 281 282 283 284 285 285
272 273 273 274 275 276 277 278 279 280 281 281 282 284 284 285 287 287 286 286 286 286 286 286 287 287 287 287 287 288 288 287 286 285 284 283 282 281 282 283 284 285 286 287
273 273 273 274 275 277 277 278 279 280 281 282 283 284 285 286 286 286 287 286 286 286 286 287 288 288 287 287 288 287 287 287 286 285 284 283 282 282 282 283 285 287 288 288
275 276 276 277 277 278 278 279 279 280 281 282 282 284 285 286 287 287 287 288 288 287 288 288 288 287 286 287 288 287 286 285 285 285 286 285 285 284 284 285 285 287 287 288
276 277 277 278 278 279 280 279 279 279 280 281 283 284 286 287 288 288 289 291 290 290 290 289 288 287 287 287 286 285 284 284 283 284 285 286 286 286 286 285 285 285 286 286
276 277 278 278 278 279 280 281 281 281 280 281 283 284 286 287 289 289 290 291 292 292 292 290 289 288 287 287 286 286 284 283 283 284 285 286 287 287 286 285 285 284 284 284
Height
5699 5697 5695 5694 5692 5690 5689 5687 5685 5683 5681 5678 5675 5673 5671 5669 5667 5665 5663 5661 5659 5658 5657 5657 5656 5656 5655 5655 5655 5654 5654 5653 5653 5652 5651 5651 5650 5649 5647 5647 5646 5645 5645 5644
5692 5690 5688 5687 5686 5685 5683 5681 5680 5678 5676 5673 5671 5669 5667 5664 5662 5660 5658 5656 5654 5652 5651 5650 5650 5649 5648 5647 5646 5645 5645 5644 5643 5643 5642 5641 5640 5639 5637 5636 5635 5634 5633 5632
5684 5683 5681 5681 5681 5679 5677 5676 5674 5672 5671 5667 5666 5664 5662 5659 5657 5654 5652 5650 5648 5646 5645 5643 5642 5641 5640 5639 5637 5636 5635 5634 5634 5632 5631 5630 5629 5628 5627 5626 5625 5623 5622 5620
5674 5675 5674 5676 5673 5672 5670 5669 5667 5665 5663 5661 5660 5658 5655 5653 5650 5648 5646 5644 5642 5639 5637 5636 5634 5633 5631 5630 5628 5627 5625 5624 5623 5622 5621 5620 5618 5617 5616 5615 5613 5612 5610 5608
5665 5665 5665 5667 5665 5663 5662 5661 5660 5658 5656 5654 5652 5651 5649 5646 5644 5641 5639 5637 5634 5632 5630 5628 5626 5624 5622 5620 5618 5617 5615 5614 5612 5611 5610 5609 5608 5606 5605 5603 5602 5600 5599 5597
5657 5656 5656 5659 5657 5654 5654 5653 5652 5650 5648 5647 5645 5643 5642 5639 5636 5634 5631 5629 5626 5624 5621 5619 5617 5615 5612 5610 5609 5607 5605 5603 5602 5600 5599 5598 5596 5595 5593 5592 5590 5589 5587 5585
5647 5646 5647 5649 5647 5646 5646 5645 5643 5641 5640 5638 5637 5635 5633 5630 5628 5625 5623 5620 5618 5615 5612 5610 5607 5605 5603 5600 5598 5596 5594 5592 5591 5589 5588 5587 5585 5583 5582 5580 5579 5577 5576 5574
5637 5637 5640 5638 5637 5637 5636 5635 5633 5632 5630 5629 5627 5625 5623 5621 5619 5617 5614 5611 5608 5606 5603 5600 5598 5595 5593 5590 5588 5586 5583 5581 5580 5578 5576 5575 5573 5572 5570 5568 5566 5565 5563 5561
5628 5630 5628 5627 5626 5625 5625 5624 5623 5622 5621 5619 5618 5616 5614 5612 5609 5607 5604 5601 5599 5596 5593 5590 5587 5584 5582 5580 5577 5575 5572 5570 5568 5566 5565 5563 5562 5560 5558 5556 5554 5553 5551 5549
5616 5616 5616 5615 5614 5614 5613 5613 5612 5611 5610 5609 5607 5605 5603 5601 5599 5596 5594 5591 5588 5585 5582 5579 5576 5574 5571 5568 5566 5564 5561 5559 5557 5555 5553 5551 5549 5548 5546 5544 5542 5540 5538 5536
5603 5604 5603 5603 5602 5602 5602 5601 5600 5599 5598 5597 5595 5594 5592 5590 5587 5585 5583 5580 5577 5574 5571 5568 5565 5562 5560 5557 5554 5552 5550 5547 5545 5543 5541 5539 5537 5535 5533 5531 5528 5527 5525 5523
5590 5591 5590 5591 5590 5589 5589 5589 5588 5587 5586 5585 5583 5581 5579 5577 5575 5573 5571 5568 5565 5563 5560 5557 5554 5551 5548 5545 5543 5540 5538 5535 5533 5531 5529 5526 5524 5522 5520 5518 5515 5513 5510 5509
5577 5577 5577 5578 5577 5577 5576 5576 5576 5575 5574 5572 5571 5569 5567 5565 5563 5561 5558 5556 5553 5550 5548 5545 5542 5539 5536 5533 5530 5528 5525 5523 5520 5518 5516 5514 5511 5509 5507 5506 5503 5500 5497 5495
5563 5563 5564 5565 5565 5565 5564 5564 5563 5562 5561 5560 5558 5556 5554 5552 5550 5548 5546 5543 5540 5538 5535 5532 5529 5527 5524 5521 5518 5515 5513 5510 5508 5506 5503 5501 5499 5497 5495 5493 5491 5488 5485 5483
5551 5551 5552 5552 5552 5552 5552 5551 5551 5550 5548 5547 5545 5543 5541 5539 5537 5535 5533 5530 5527 5525 5522 5519 5517 5514 5511 5508 5505 5503 5500 5498 5495 5493 5491 5489 5487 5484 5482 5480 5478 5476 5473 5471
5538 5538 5539 5539 5539 5539 5539 5538 5538 5537 5535 5534 5532 5530 5528 5526 5524 5522 5519 5517 5514 5512 5509 5506 5504 5501 5498 5495 5492 5490 5488 5485 5483 5481 5478 5476 5474 5472 5470 5468 5466 5463 5461 5459
5525 5526 5526 5526 5526 5526 5526 5525 5524 5523 5522 5520 5519 5517 5514 5512 5510 5508 5506 5503 5500 5498 5495 5493 5490 5487 5485 5482 5479 5477 5475 5473 5470 5468 5466 5463 5461 5459 5457 5455 5453 5451 5449 5447
5512 5513 5513 5514 5513 5513 5512 5512 5510 5509 5508 5506 5505 5503 5501 5498 5496 5494 5492 5490 5487 5485 5482 5479 5477 5474 5472 5469 5467 5464 5462 5460 5457 5455 5453 5451 5449 5447 5445 5443 5441 5439 5437 5435
5499 5500 5500 5500 5500 5500 5499 5498 5497 5496 5494 5493 5491 5489 5487 5485 5482 5481 5478 5476 5474 5472 5470 5467 5464 5462 5460 5457 5454 5452 5449 5447 5444 5442 5440 5438 5437 5435 5433 5432 5430 5428 5426 5424
5486 5486 5487 5487 5487 5486 5486 5485 5484 5482 5481 5480 5478 5476 5474 5472 5469 5467 5465 5463 5460 5458 5456 5454 5452 5450 5447 5445 5442 5440 5437 5435 5432 5430 5428 5427 5425 5423 5422 5420 5419 5417 5415 5413
5474 5474 5474 5474 5474 5473 5472 5472 5471 5470 5468 5467 5465 5463 5461 5459 5457 5454 5452 5451 5448 5446 5444 5442 5440 5437 5435 5433 5430 5428 5425 5422 5420 5418 5417 5415 5413 5412 5411 5409 5408 5406 5404 5402
5462 5462 5462 5462 5461 5461 5460 5459 5458 5457 5456 5455 5453 5451 5449 5447 5445 5443 5440 5438 5436 5434 5432 5430 5428 5426 5423 5421 5418 5416 5413 5411 5409 5407 5405 5404 5402 5401 5400 5398 5397 5395 5393 5391
5450 5450 5450 5450 5450 5449 5449 5448 5447 5446 5444 5443 5441 5439 5437 5435 5433 5431 5430 5427 5425 5423 5421 5419 5416 5414 5412 5410 5407 5405 5403 5400 5398 5396 5395 5393 5392 5391 5390 5388 5386 5385 5383 5381
5440 5440 5440 5439 5439 5438 5438 5437 5435 5434 5433 5431 5430 5428 5426 5424 5422 5420 5418 5416 5414 5412 5410 5407 5405 5403 5401 5399 5397 5395 5393 5390 5388 5387 5385 5383 5382 5381 5379 5378 5377 5375 5373 5371
5430 5430 5429 5429 5428 5427 5427 5426 5425 5423 5422 5421 5419 5417 5415 5413 5412 5409 5407 5405 5403 5401 5399 5397 5395 5392 5390 5388 5386 5385 5383 5381 5379 5377 5376 5374 5372 5371 5369 5368 5367 5365 5363 5362
5420 5420 5419 5418 5418 5417 5416 5415 5414 5413 5411 5410 5409 5407 5405 5403 5401 5399 5397 5395 5393 5390 5388 5386 5384 5382 5380 5378 5376 5374 5373 5371 5369 5368 5366 5365 5363 5361 5360 5358 5357 5356 5354 5353
5411 5410 5409 5409 5408 5407 5406 5405 5404 5403 5401 5400 5399 5397 5395 5393 5391 5389 5387 5385 5383 5380 5378 5376 5374 5372 5370 5368 5366 5364 5363 5361 5360 5358 5357 5356 5354 5353 5351 5350 5348 5347 5346 5344